Regional Weather Roundup
Issued by NWS

Home | Current Version | Previous Version | Text Only | Print | Product List | Glossary On
Versions: 1 2 3 4 5 6 7 8 9 10 11 12 13 14 15 16 17 18 19 20 21 22 23 24 25 26 27 28 29 30 31 32 33 34 35 36 37 38 39 40 41 42 43 44 45 46 47 48 49 50
000
ASUS43 KOAX 250010
RWRNE

WEATHER ROUNDUP FOR NEBRASKA
NATIONAL WEATHER SERVICE OMAHA NE
700 PM CDT THU APR 24 2014

NOTES: SATELLITE DATA IS BEING USED TO AUGMENT CLOUD COVER ABOVE
       12000 FEET.
       "FAIR" INDICATES FEW OR NO CLOUDS BELOW 12,000 FEET WITH NO
       SIGNIFICANT WEATHER AND/OR OBSTRUCTIONS TO VISIBILITY.

  * THESE STATIONS DO NOT REPORT WEATHER SUCH AS RAIN...SNOW OR FOG.

NEZ001>004-019>022-054>056-250100-
NEBRASKA PANHANDLE

CITY           SKY/WX    TMP DP  RH WIND       PRES   REMARKS
SCOTTSBLUFF    PTSUNNY   66  20  17 W18       29.81S
6HR MIN TEMP:  61; 6HR MAX TEMP:  68;

ALLIANCE       MOSUNNY   63  15  15 W8        29.81S
6HR MIN TEMP:  60; 6HR MAX TEMP:  66;

CHADRON        SUNNY     66  21  18 W12       29.77S
6HR MIN TEMP:  62; 6HR MAX TEMP:  67;

KIMBALL        CLOUDY    61  17  18 NW5       29.84S
SIDNEY         MOSUNNY   64  20  18 NW8       29.85S
6HR MIN TEMP:  60; 6HR MAX TEMP:  67;

$$

NEZ057>060-069>072-079>082-250100-
SOUTHWEST NEBRASKA

CITY           SKY/WX    TMP DP  RH WIND       PRES   REMARKS
NORTH PLATTE   MOSUNNY   65  23  20 W9        29.81S
6HR MIN TEMP:  65; 6HR MAX TEMP:  69;

IMPERIAL       SUNNY     68  14  12 W9        29.83F
6HR MIN TEMP:  64; 6HR MAX TEMP:  70;

LEXINGTON      PTSUNNY   67  19  16 NW13      29.80R
MCCOOK         MOSUNNY   69  16  13 W10       29.83S
6HR MIN TEMP:  66; 6HR MAX TEMP:  71;

OGALLALA       MOSUNNY   65  14  13 W8        29.83S
$$

NEZ005>010-023>029-035>040-094-250100-
NORTH CENTRAL NEBRASKA

CITY           SKY/WX    TMP DP  RH WIND       PRES   REMARKS
VALENTINE      SUNNY     66  21  18 NW9       29.77S
6HR MIN TEMP:  63; 6HR MAX TEMP:  69;

AINSWORTH      SUNNY     66  20  17 NW13      29.77S
BROKEN BOW     SUNNY     68  14  12 NW14      29.78S
6HR MIN TEMP:  65; 6HR MAX TEMP:  70;

O`NEILL        SUNNY     67  11  11 NW17G25   29.76S
ORD            SUNNY     69  18  14 NW12      29.75S
6HR MIN TEMP:  66; 6HR MAX TEMP:  70;

THEDFORD       SUNNY     68  13  12 NW7       29.80R
$$

NEZ041-046>049-061>064-073>077-083>087-250100-
SOUTH CENTRAL NEBRASKA

CITY           SKY/WX    TMP DP  RH WIND       PRES   REMARKS
GRAND ISLAND   SUNNY     69  30  23 N10       29.78S
6HR MIN TEMP:  65; 6HR MAX TEMP:  71;

AURORA         SUNNY     68  35  28 N6        29.78S
HASTINGS       SUNNY     68  29  23 NW7       29.79S
6HR MIN TEMP:  63; 6HR MAX TEMP:  70;

HEBRON         SUNNY     68  28  23 N6        29.79S
HOLDREGE       MOSUNNY   68  22  17 W9        29.80S
KEARNEY *      SUNNY     68  25  19 NW8       29.79F
YORK           SUNNY     64  39  39 NW6       29.78S
$$

NEZ011>018-030>034-042>045-250100-
NORTHEAST NEBRASKA

CITY           SKY/WX    TMP DP  RH WIND       PRES   REMARKS
NORFOLK        SUNNY     67  26  21 NW16      29.74R
6HR MIN TEMP:  62; 6HR MAX TEMP:  69;

ALBION         SUNNY     67  25  20 NW12G23   29.76S
BLAIR          CLOUDY    64  40  41 N5        29.74S
COLUMBUS *     MOSUNNY   66  32  28 NW14      29.76S
FREMONT        PTSUNNY   66  38  35 N3        29.75S
TEKAMAH        CLOUDY    64  41  42 NE7       29.73R
6HR MIN TEMP:  57; 6HR MAX TEMP:  67;

$$

NEZ050>053-065>068-078-088>093-250100-
SOUTHEAST NEBRASKA

CITY           SKY/WX    TMP DP  RH WIND       PRES   REMARKS
LINCOLN        CLOUDY    67  39  35 E8        29.77R
6HR MIN TEMP:  60; 6HR MAX TEMP:  70;

OMAHA EPPLEY   CLOUDY    63  44  50 N5        29.74S
6HR MIN TEMP:  57; 6HR MAX TEMP:  64;

BEATRICE       PTSUNNY   66  37  33 N3        29.78S
FALLS CITY     CLOUDY    59  49  69 W3        29.78R
6HR MIN TEMP:  56; 6HR MAX TEMP:  59; 6HR PCP:  0.02;

NEBRASKA CITY  CLOUDY    61  44  53 N6        29.77R
PLATTSMOUTH    CLOUDY    63  41  45 N3        29.76R
$$

NEZ044-045-051>053-067-250100-
OMAHA AREA

CITY           SKY/WX    TMP DP  RH WIND       PRES   REMARKS
OMAHA EPPLEY   CLOUDY    63  44  50 N5        29.74S
6HR MIN TEMP:  57; 6HR MAX TEMP:  64;

BLAIR          CLOUDY    64  40  41 N5        29.74S
FREMONT        PTSUNNY   66  38  35 N3        29.75S
MILLARD        CLOUDY    64  39  40 CALM      29.74S
OFFUTT AFB     CLOUDY    63  43  47 VRB7      29.75R
PLATTSMOUTH    CLOUDY    63  41  45 N3        29.76R
WAHOO          FAIR      65  35  31 NE3       29.74F
$$



USA.gov is the U.S. government's official web portal to all federal, state and local government web resources and services.